Home > Weather > Kryvyi Rih > Past weeks

Flag for Ukraine Weather for the Past 2 Weeks in Kryvyi Rih, Ukraine

Now
34 °F

Fog.


Feels Like: 31 °F
Forecast: 39 / 47 °F
Wind: 3 mph from East

Location: Krivyy Rih / Dnipropetrovs'k

Current Time: Feb 13, 2016 at 2:55:53 AM

Latest Report: Feb 13, 2016 at 2:30 AM


Visibility: 0 mi

Pressure: 29.98 "Hg

Humidity: 100%

Dew point: 34 °F

Location of Kryvyi RihLocation

Historic Weather in Kryvyi Rih — Graph

°F

Kryvyi Rih Temperature Yesterday

Maximum temperature yesterday: 34 °F (at 1:00 PM)
Minimum temperature yesterday: 28 °F (at 4:00 AM)
Average temperature yesterday: 32 °F

High & Low Weather Summary for the Past Weeks

 TemperatureHumidityPressure
High43 °F (Feb 10, 4:00 PM)100% (Jan 30, 6:00 AM)30.42 "Hg (Jan 30, 6:00 AM)
Low18 °F (Feb 7, 4:00 AM)65% (Feb 6, 12:00 PM)29.59 "Hg (Feb 11, 1:00 PM)
Average32 °F87%30.06 "Hg
* Reported Jan 29 1:30 AM — Feb 13 1:00 AM, Kryvyi Rih, Weather by CustomWeather, © 2016

Note: Actual official high and low records may vary slightly from our data, if they occured in-between our weather recording intervals... More about our weather records

Advertising

Kryvyi Rih Weather History for the Previous 24 Hours

 ConditionsComfort  
Time TempWeatherWind HumidityBarometerVisibility
1:00 AM
Sat, Feb 13
36 °FFog.3 mph100%30.01 "Hg0 mi
12:00 AM36 °FFog.1 mph100%30.01 "Hg0 mi
11:30 PM
Fri, Feb 12
34 °FFog.3 mph100%30.01 "Hg0 mi
11:00 PM34 °FFog.3 mph100%30.01 "Hg0 mi
10:30 PM34 °FFog.3 mph100%30.01 "Hg0 mi
10:00 PM34 °FFog.3 mph100%30.01 "Hg0 mi
9:30 PM34 °FFog.3 mph100%30.01 "Hg0 mi
9:00 PM34 °FFog.3 mph100%30.01 "Hg0 mi
8:30 PM34 °FFog.1 mph100%30.01 "Hg0 mi
8:00 PM34 °FFog.6 mph100%30.01 "Hg0 mi
7:30 PM34 °FFog.3 mph100%30.01 "Hg0 mi
7:00 PM34 °FFog.1 mph100%30.01 "Hg0 mi
6:30 PM34 °FFog.1 mph100%30.01 "Hg0 mi
6:00 PM34 °FFog.3 mph100%30.01 "Hg0 mi
5:30 PM34 °FFog.3 mph100%30.01 "Hg0 mi
5:00 PM34 °FFog.6 mph100%30.01 "Hg0 mi
4:30 PM34 °FFog.6 mph93%30.01 "Hg1 mi
4:00 PM34 °FFog.6 mph93%30.01 "Hg1 mi
3:30 PM34 °FFog.6 mph100%30.01 "Hg1 mi
3:00 PM34 °FFog.6 mph100%29.98 "Hg1 mi
2:30 PM34 °FFog.3 mph100%29.98 "Hg1 mi
2:00 PM34 °FFog.3 mph100%29.98 "Hg0 mi
1:30 PM34 °FFog.3 mph100%29.98 "Hg1 mi
1:00 PM34 °FIce fog.3 mph100%29.98 "Hg1 mi
12:30 PM32 °FIce fog.3 mph100%29.98 "Hg0 mi
12:00 PM32 °FIce fog.6 mph100%29.98 "Hg0 mi
11:30 AM32 °FIce fog.6 mph100%29.98 "Hg0 mi
11:00 AM32 °FIce fog.6 mph100%29.98 "Hg0 mi
10:30 AM32 °FIce fog.6 mph100%29.98 "Hg0 mi
10:00 AM32 °FIce fog.6 mph100%29.98 "Hg0 mi
9:30 AM30 °FIce fog.8 mph100%29.95 "Hg0 mi
9:00 AM30 °FIce fog.6 mph100%29.95 "Hg1 mi
8:30 AM28 °FIce fog.3 mph100%29.95 "Hg0 mi
8:00 AM28 °FIce fog.3 mph100%29.95 "Hg0 mi
7:30 AM28 °FIce fog.3 mph100%29.95 "Hg0 mi
7:00 AM28 °FIce fog.6 mph100%29.92 "Hg0 mi
6:30 AM28 °FIce fog.6 mph100%29.92 "Hg0 mi
6:00 AM28 °FIce fog.3 mph100%29.92 "Hg0 mi
5:30 AM28 °FIce fog.6 mph100%29.92 "Hg0 mi
5:00 AM28 °FIce fog.No wind100%29.89 "Hg0 mi
4:30 AM28 °FIce fog.3 mph100%29.89 "Hg0 mi
4:00 AM28 °FIce fog.No wind100%29.89 "Hg0 mi
3:30 AM30 °FIce fog.3 mph100%29.86 "Hg0 mi
3:00 AM30 °FIce fog.1 mph100%29.86 "Hg0 mi
2:30 AM30 °FIce fog.8 mph100%29.86 "Hg0 mi
2:00 AM30 °FIce fog.6 mph100%29.86 "Hg1 mi
Weather by CustomWeather, © 2016

See weather overviewHow to use our weather pages